TimePST,TemperatureF,Dew PointF,Humidity,Sea Level PressureIn,VisibilityMPH,Wind Direction,Wind SpeedMPH,Gust SpeedMPH,PrecipitationIn,Events,Conditions,WindDirDegrees,DateUTC
12:58 AM,42.6,39.7,90,29.97,10.0,West,6.9,-,N/A,,Clear,260,2012-11-10 08:58:00
1:58 AM,43.7,38.1,81,29.98,10.0,SW,8.1,-,N/A,,Clear,230,2012-11-10 09:58:00
2:58 AM,40.3,38.5,93,29.98,10.0,WSW,11.5,-,N/A,,Clear,250,2012-11-10 10:58:00
3:58 AM,39.7,37.4,91,29.99,10.0,SW,9.2,-,N/A,,Clear,220,2012-11-10 11:58:00
4:58 AM,38.7,37.0,94,30.00,10.0,WSW,9.2,-,N/A,,Clear,250,2012-11-10 12:58:00
5:58 AM,37.0,34.5,91,30.02,10.0,WSW,6.9,-,N/A,,Clear,240,2012-11-10 13:58:00
6:58 AM,35.4,34.0,94,30.05,10.0,WSW,3.5,-,N/A,,Clear,240,2012-11-10 14:58:00
7:58 AM,45.5,37.2,73,30.07,10.0,SSE,1.2,-,N/A,,Clear,160,2012-11-10 15:58:00
8:58 AM,48.6,37.2,65,30.10,10.0,West,4.6,-,N/A,,Clear,260,2012-11-10 16:58:00
9:58 AM,51.1,36.1,57,30.13,10.0,Variable,1.2,-,N/A,,Clear,0,2012-11-10 17:58:00
10:58 AM,54.5,33.4,45,30.14,10.0,Variable,1.2,-,N/A,,Clear,0,2012-11-10 18:58:00
11:58 AM,55.0,33.4,44,30.13,10.0,Variable,1.2,-,N/A,,Clear,0,2012-11-10 19:58:00
12:58 PM,56.8,32.7,40,30.13,10.0,Variable,2.3,-,N/A,,Clear,0,2012-11-10 20:58:00
1:58 PM,57.6,33.3,40,30.13,10.0,NNW,5.8,-,N/A,,Clear,330,2012-11-10 21:58:00
2:58 PM,57.2,32.4,39,30.13,10.0,Variable,3.5,-,N/A,,Clear,0,2012-11-10 22:58:00
3:58 PM,56.8,32.7,40,30.14,10.0,South,5.8,-,N/A,,Clear,180,2012-11-10 23:58:00
4:58 PM,53.4,34.0,48,30.15,10.0,SSE,3.5,-,N/A,,Clear,160,2012-11-11 00:58:00
5:58 PM,47.5,34.9,62,30.17,10.0,SE,4.6,-,N/A,,Clear,130,2012-11-11 01:58:00
6:58 PM,44.8,34.0,66,30.19,10.0,South,5.8,-,N/A,,Clear,190,2012-11-11 02:58:00
7:58 PM,45.9,36.9,71,30.20,10.0,South,3.5,-,N/A,,Clear,190,2012-11-11 03:58:00
8:58 PM,41.0,37.2,86,30.22,10.0,West,2.3,-,N/A,,Clear,260,2012-11-11 04:58:00
9:58 PM,35.8,34.3,94,30.25,10.0,North,2.3,-,N/A,,Clear,350,2012-11-11 05:58:00
10:58 PM,36.3,34.5,93,30.25,10.0,Calm,Calm,-,N/A,,Clear,340,2012-11-11 06:58:00
11:58 PM,34.3,33.1,95,30.26,10.0,North,4.6,-,N/A,,Clear,360,2012-11-11 07:58:00